Ft Riley, KS

9:14 PM CDT on March 28, 2017 (GMT -0500)
Marshall Army Air Field

Weather History for KFRI - February, 2014

Change the Weather History Date:

Tuesday, February 11, 2014

  Actual Average (KMHK) Record (KMHK)
Temperature  
Mean Temperature 12 °F -  
Max Temperature 23 °F 42 °F 68 °F (1999)
Min Temperature 0 °F 20 °F 2 °F (2014)
Degree Days  
Heating Degree Days 54    
Moisture  
Dew Point 2 °F    
Average Humidity 62    
Maximum Humidity 85    
Minimum Humidity 50    
Precipitation  
Precipitation 0.00 in - - ()
Sea Level Pressure  
Sea Level Pressure 30.40 in    
Wind  
Wind Speed 5 mph (SSE)    
Max Wind Speed 10 mph    
Max Gust Speed -    
Visibility 10 miles    
Events Snow    
Averages and records for this station are not official NWS values.
T = Trace of Precipitation, MM = Missing Value Source: NWS Daily Summary

Daily Weather History Graph

Daily Weather History Graph

Search for Another Location

Airport or City:

Trip Planner

Search our weather history database for the weather conditions in past years. The results will help you decide how hot, cold, wet, or windy it might be!

Date:

Astronomy

Feb. 11, 2014 Rise Set
Actual Time 7:23 AM CST 5:59 PM CST
Civil Twilight 6:55 AM CST 6:27 PM CST
Nautical Twilight 6:24 AM CST 6:58 PM CST
Astronomical Twilight 5:53 AM CST 7:29 PM CST
Moon 3:21 PM CST (2/11) 5:00 AM CST (2/11)
Length of Visible Light 11h 31m
Length of Day
10h 36m
Waxing Gibbous, 91% of the Moon is Illuminated
Feb 11
Waxing Gibbous
Feb 14
Full
Feb 22
Last Quarter
Mar 1
New
Mar 8
First Quarter

Hourly Weather History & Observations

Time (CST) Temp. Windchill Dew Point Humidity Pressure Visibility Wind Dir Wind Speed Gust Speed Precip Events Conditions
12:58 AM 10.6 °F 4.3 °F 1.2 °F 66% 30.51 in 10.0 mi ENE 3.5 mph - N/A   Overcast
1:58 AM 9.5 °F 1.2 °F -0.0 °F 65% 30.52 in 10.0 mi SE 4.6 mph - N/A   Scattered Clouds
2:58 AM 4.8 °F - -1.5 °F 75% 30.53 in 10.0 mi NE 1.2 mph - N/A   Partly Cloudy
3:58 AM 4.1 °F -3.2 °F -0.9 °F 80% 30.51 in 10.0 mi NNE 3.5 mph - N/A   Mostly Cloudy
4:58 AM 3.2 °F -6.2 °F -1.7 °F 80% 30.52 in 10.0 mi North 4.6 mph - N/A   Scattered Clouds
5:58 AM 0.3 °F -7.5 °F -3.1 °F 85% 30.51 in 10.0 mi ENE 3.5 mph - N/A   Clear
6:58 AM 3.2 °F - -1.8 °F 80% 30.51 in 10.0 mi NE 2.3 mph - N/A   Overcast
7:58 AM 6.8 °F -0.1 °F -0.6 °F 72% 30.50 in 10.0 mi Variable 3.5 mph - N/A   Overcast
8:58 AM 6.6 °F - -0.8 °F 72% 30.51 in 10.0 mi ENE 2.3 mph - N/A   Scattered Clouds
9:40 AM 10.4 °F 4.0 °F -0.4 °F 62% 30.45 in 10.0 mi SSE 3.5 mph - N/A Snow Light Snow
9:50 AM 10.4 °F - -0.4 °F 62% 30.44 in 10.0 mi Variable 1.2 mph - N/A   Mostly Cloudy
9:58 AM 11.1 °F 3.1 °F -0.2 °F 60% 30.50 in 10.0 mi SSE 4.6 mph - 0.00 in   Scattered Clouds
10:58 AM 14.7 °F 4.8 °F 0.7 °F 54% 30.49 in 10.0 mi South 6.9 mph - N/A   Mostly Cloudy
11:58 AM 17.1 °F 5.8 °F 1.9 °F 52% 30.46 in 10.0 mi South 9.2 mph - N/A   Overcast
12:13 PM 17.6 °F 8.2 °F 3.2 °F 53% 30.39 in 10.0 mi SSE 6.9 mph - N/A   Overcast
12:58 PM 19.4 °F 10.4 °F 4.5 °F 52% 30.42 in 10.0 mi SSE 6.9 mph - N/A   Overcast
1:58 PM 20.1 °F 9.5 °F 4.8 °F 52% 30.37 in 10.0 mi South 9.2 mph - N/A   Overcast
2:58 PM 21.2 °F 13.6 °F 6.3 °F 53% 30.34 in 10.0 mi South 5.8 mph - N/A   Overcast
3:43 PM 23.0 °F 13.9 °F 6.8 °F 50% 30.25 in 10.0 mi South 8.1 mph - N/A   Scattered Clouds
3:58 PM 23.0 °F 12.4 °F 7.3 °F 51% 30.30 in 10.0 mi SSE 10.4 mph - N/A   Clear
4:58 PM 21.9 °F 14.5 °F 6.4 °F 51% 30.29 in 10.0 mi SSE 5.8 mph - N/A   Clear
5:58 PM 19.9 °F 12.1 °F 6.1 °F 55% 30.28 in 10.0 mi South 5.8 mph - N/A   Clear
6:58 PM 17.8 °F 10.9 °F 5.5 °F 59% 30.29 in 10.0 mi SSE 4.6 mph - N/A   Clear
7:58 PM 16.2 °F 6.5 °F 4.6 °F 61% 30.28 in 10.0 mi South 6.9 mph - N/A   Clear
8:58 PM 15.3 °F 6.6 °F 3.9 °F 61% 30.28 in 10.0 mi South 5.8 mph - N/A   Clear
9:58 PM 15.1 °F 4.2 °F 3.9 °F 61% 30.28 in 10.0 mi South 8.1 mph - N/A   Clear
10:58 PM 14.7 °F 5.9 °F 3.9 °F 62% 30.26 in 10.0 mi SW 5.8 mph - N/A   Clear
11:58 PM 16.9 °F 4.8 °F 5.7 °F 62% 30.23 in 10.0 mi South 10.4 mph - N/A   Clear